| time (UTC) | temp C | wind direction | speed KPH | gust KPH | rain 1hr cm | rain 24hr cm | rain mn cm | humidity % | barometer mb |
| 20260508161233 | 17 | 165 | 1.6 | 4.8 | 0.00 | 0.99 | 1.02 | 90 | 1014.1 |
| 20260508155113 | 17 | 156 | 4.8 | 11.3 | 0.00 | 0.99 | 1.02 | 90 | 1013.9 |
| 20260508154136 | 17 | 163 | 1.6 | 6.4 | 0.00 | 0.99 | 1.02 | 90 | 1014.0 |
| 20260508153124 | 17 | 124 | 1.6 | 4.8 | 0.15 | 0.99 | 1.02 | 89 | 1013.9 |
| 20260508152133 | 17 | 138 | 4.8 | 11.3 | 1.17 | 0.99 | 0.97 | 88 | 1013.9 |
| 20260508151103 | 18 | 148 | 3.2 | 12.9 | 0.00 | 0.91 | 0.94 | 90 | 1014.2 |
| 20260508150121 | 18 | 119 | 6.4 | 17.7 | 0.00 | 0.91 | 0.94 | 91 | 1014.0 |
| 20260508145047 | 17 | 159 | 6.4 | 17.7 | 0.00 | 0.91 | 0.94 | 91 | 1014.1 |
| 20260508142839 | 16 | 116 | 0.0 | 0.0 | 0.00 | 0.91 | 0.94 | 91 | 1014.4 |
| 20260508141822 | 16 | 127 | 0.0 | 0.0 | 0.00 | 0.91 | 0.94 | 91 | 1014.5 |
| 20260508140818 | 16 | 112 | 0.0 | 0.0 | 0.00 | 0.91 | 0.94 | 91 | 1014.8 |
| 20260508135841 | 16 | 101 | 0.0 | 0.0 | 0.00 | 0.91 | 0.94 | 91 | 1015.0 |
| 20260508134834 | 16 | 103 | 1.6 | 3.2 | 0.00 | 0.91 | 0.94 | 91 | 1014.6 |
| 20260508133803 | 15 | 180 | 0.0 | 0.0 | 0.00 | 0.91 | 0.94 | 91 | 1014.5 |
| 20260508132758 | 15 | 184 | 1.6 | 8.0 | 0.00 | 0.91 | 0.94 | 91 | 1014.9 |
| 20260508131740 | 15 | 115 | 4.8 | 14.5 | 0.00 | 0.91 | 0.94 | 91 | 1014.3 |
| 20260508130710 | 15 | 142 | 0.0 | 3.2 | 0.00 | 0.91 | 0.94 | 91 | 1014.7 |
| 20260508125659 | 15 | 203 | 0.0 | 0.0 | 0.00 | 0.91 | 0.94 | 91 | 1015.0 |
| 20260508124626 | 15 | 221 | 0.0 | 0.0 | 0.00 | 0.91 | 0.94 | 91 | 1015.2 |
| 20260508123609 | 15 | 221 | 0.0 | 0.0 | 0.00 | 0.91 | 0.94 | 91 | 1015.3 |
| 20260508122548 | 15 | 164 | 1.6 | 1.6 | 0.13 | 0.91 | 0.94 | 92 | 1015.0 |
| 20260508120420 | 15 | 178 | 3.2 | 0.0 | 1.88 | 0.74 | 0.79 | 92 | 1015.3 |
| 20260508115439 | 15 | 176 | 1.6 | 8.0 | 0.00 | 0.48 | 0.48 | 91 | 1014.8 |
| 20260508114502 | 15 | 120 | 1.6 | 9.7 | 0.00 | 0.48 | 0.48 | 91 | 1014.4 |
| 20260508113458 | 15 | 105 | 3.2 | 9.7 | 0.00 | 0.48 | 0.48 | 92 | 1014.3 |
| 20260508112520 | 15 | 134 | 4.8 | 9.7 | 0.00 | 0.48 | 0.48 | 92 | 1014.6 |
| 20260508110408 | 15 | 167 | 9.7 | 17.7 | 0.10 | 0.46 | 0.46 | 92 | 1013.9 |
| 20260508105403 | 14 | 131 | 4.8 | 11.3 | 0.30 | 0.46 | 0.46 | 91 | 1014.6 |
| 20260508104410 | 14 | 217 | 3.2 | 14.5 | 0.89 | 0.33 | 0.38 | 91 | 1015.7 |
| 20260508102315 | 13 | 42 | 0.0 | 0.0 | 0.00 | 0.00 | 0.00 | 92 | 1013.9 |
| 20260508101325 | 13 | 43 | 0.0 | 0.0 | 0.00 | 0.00 | 0.00 | 91 | 1013.6 |
| 20260508100342 | 13 | 43 | 0.0 | 0.0 | 0.00 | 0.00 | 0.00 | 91 | 1013.7 |
| 20260508095319 | 13 | 43 | 0.0 | 0.0 | 0.00 | 0.00 | 0.00 | 91 | 1014.0 |
| 20260508094334 | 13 | 48 | 0.0 | 0.0 | 0.00 | 0.00 | 0.00 | 91 | 1013.9 |
| 20260508093318 | 13 | 136 | 0.0 | 0.0 | 0.00 | 0.00 | 0.00 | 91 | 1013.8 |
| 20260508092251 | 14 | 140 | 0.0 | 0.0 | 0.00 | 0.00 | 0.00 | 91 | 1014.2 |
| 20260508091254 | 14 | 181 | 0.0 | 0.0 | 0.00 | 0.00 | 0.00 | 91 | 1014.5 |
| 20260508090222 | 14 | 306 | 0.0 | 0.0 | 0.00 | 0.00 | 0.00 | 91 | 1014.5 |
| 20260508085229 | 14 | 115 | 1.6 | 0.0 | 0.00 | 0.00 | 0.00 | 91 | 1013.9 |
| 20260508084248 | 14 | 132 | 0.0 | 6.4 | 0.00 | 0.00 | 0.00 | 91 | 1014.5 |
| 20260508083222 | 14 | 145 | 0.0 | 0.0 | 0.00 | 0.00 | 0.00 | 91 | 1014.7 |
| 20260508082212 | 14 | 148 | 3.2 | 8.0 | 0.00 | 0.00 | 0.00 | 91 | 1014.6 |
| 20260508080127 | 13 | 101 | 0.0 | 0.0 | 0.00 | 0.00 | 0.00 | 91 | 1015.0 |
| 20260508075119 | 13 | 101 | 0.0 | 0.0 | 0.00 | 0.00 | 0.00 | 91 | 1015.3 |
| 20260508074044 | 13 | 101 | 0.0 | 0.0 | 0.00 | 0.00 | 0.00 | 91 | 1014.8 |
| 20260508073044 | 13 | 101 | 0.0 | 0.0 | 0.00 | 0.00 | 0.00 | 90 | 1014.8 |
| 20260508072021 | 13 | 126 | 0.0 | 0.0 | 0.00 | 0.00 | 0.00 | 91 | 1015.0 |
| 20260508071045 | 13 | 126 | 0.0 | 0.0 | 0.00 | 0.00 | 0.00 | 91 | 1015.2 |
| 20260508070026 | 13 | 126 | 0.0 | 0.0 | 0.00 | 0.00 | 0.00 | 91 | 1015.5 |
| 20260508063846 | 13 | 126 | 0.0 | 0.0 | 0.00 | 0.00 | 0.00 | 91 | 1015.8 |
| 20260508062858 | 13 | 126 | 0.0 | 0.0 | 0.00 | 0.00 | 0.00 | 90 | 1015.7 |
| 20260508061913 | 13 | 126 | 0.0 | 0.0 | 0.00 | 0.00 | 0.00 | 90 | 1015.7 |
| 20260508060901 | 13 | 126 | 0.0 | 0.0 | 0.00 | 0.00 | 0.00 | 90 | 1015.7 |
| 20260508055835 | 13 | 126 | 0.0 | 0.0 | 0.00 | 0.00 | 0.00 | 90 | 1015.7 |
| 20260508054859 | 13 | 126 | 0.0 | 0.0 | 0.00 | 0.00 | 0.00 | 90 | 1015.7 |
| 20260508053841 | 13 | 126 | 0.0 | 0.0 | 0.00 | 0.00 | 0.00 | 90 | 1015.9 |
| 20260508052813 | 13 | 126 | 0.0 | 0.0 | 0.00 | 0.00 | 0.00 | 89 | 1016.1 |
| 20260508050602 | 13 | 126 | 0.0 | 0.0 | 0.00 | 0.00 | 0.00 | 89 | 1015.9 |
| 20260508044421 | 13 | 126 | 0.0 | 0.0 | 0.00 | 0.00 | 0.00 | 87 | 1015.8 |
| 20260508043426 | 13 | 126 | 0.0 | 0.0 | 0.00 | 0.00 | 0.00 | 87 | 1015.8 |
| 20260508042429 | 13 | 136 | 0.0 | 0.0 | 0.00 | 0.00 | 0.00 | 87 | 1015.8 |
| 20260508041409 | 13 | 144 | 0.0 | 0.0 | 0.00 | 0.00 | 0.00 | 86 | 1015.9 |
| 20260508040335 | 14 | 144 | 0.0 | 0.0 | 0.00 | 0.00 | 0.00 | 85 | 1015.8 |
| 20260508034135 | 15 | 144 | 0.0 | 0.0 | 0.00 | 0.00 | 0.00 | 84 | 1015.7 |
| 20260508033152 | 15 | 144 | 0.0 | 0.0 | 0.00 | 0.00 | 0.00 | 84 | 1015.7 |
| 20260508032146 | 15 | 144 | 0.0 | 0.0 | 0.00 | 0.00 | 0.00 | 82 | 1015.7 |
| 20260508031204 | 15 | 144 | 0.0 | 0.0 | 0.00 | 0.00 | 0.00 | 82 | 1015.6 |
| 20260508030150 | 15 | 144 | 0.0 | 0.0 | 0.00 | 0.00 | 0.00 | 81 | 1015.6 |
| 20260508025146 | 16 | 144 | 0.0 | 0.0 | 0.00 | 0.00 | 0.00 | 80 | 1015.6 |
| 20260508024146 | 16 | 144 | 0.0 | 0.0 | 0.00 | 0.00 | 0.00 | 79 | 1015.4 |
| 20260508023113 | 16 | 144 | 0.0 | 0.0 | 0.00 | 0.00 | 0.00 | 78 | 1015.2 |
| 20260508022052 | 16 | 144 | 0.0 | 0.0 | 0.00 | 0.00 | 0.00 | 78 | 1015.2 |
| 20260508015919 | 17 | 144 | 0.0 | 0.0 | 0.00 | 0.00 | 0.00 | 77 | 1015.3 |
| 20260508014906 | 17 | 151 | 0.0 | 4.8 | 0.00 | 0.00 | 0.00 | 76 | 1015.1 |
| 20260508013901 | 17 | 145 | 1.6 | 6.4 | 0.00 | 0.00 | 0.00 | 75 | 1015.1 |
| 20260508012918 | 18 | 148 | 1.6 | 8.0 | 0.00 | 0.00 | 0.00 | 74 | 1015.0 |
| 20260508011938 | 18 | 160 | 3.2 | 8.0 | 0.00 | 0.00 | 0.00 | 73 | 1015.0 |
| 20260508010912 | 18 | 156 | 1.6 | 9.7 | 0.00 | 0.00 | 0.00 | 71 | 1014.8 |
| 20260508005844 | 19 | 168 | 4.8 | 14.5 | 0.00 | 0.00 | 0.00 | 69 | 1014.8 |
| 20260508004900 | 20 | 178 | 6.4 | 14.5 | 0.00 | 0.00 | 0.00 | 67 | 1014.8 |
| 20260508003925 | 20 | 173 | 0.0 | 9.7 | 0.00 | 0.00 | 0.00 | 62 | 1014.8 |
| 20260508001747 | 21 | 164 | 0.0 | 0.0 | 0.00 | 0.00 | 0.00 | 59 | 1015.0 |
| 20260508000742 | 21 | 173 | 0.0 | 0.0 | 0.00 | 0.00 | 0.00 | 59 | 1014.8 |
| 20260507235734 | 21 | 277 | 0.0 | 0.0 | 0.00 | 0.00 | 0.00 | 59 | 1014.8 |
| 20260507233622 | 21 | 301 | 0.0 | 0.0 | 0.00 | 0.00 | 0.00 | 54 | 1014.9 |
| 20260507232611 | 21 | 0 | 0.0 | 0.0 | 0.00 | 0.00 | 0.00 | 54 | 1014.9 |
| 20260507231539 | 21 | 355 | 0.0 | 1.6 | 0.00 | 0.00 | 0.00 | 52 | 1014.9 |
| 20260507230510 | 21 | 322 | 0.0 | 1.6 | 0.00 | 0.00 | 0.00 | 53 | 1015.1 |
| 20260507225521 | 21 | 12 | 0.0 | 0.0 | 0.00 | 0.00 | 0.00 | 53 | 1015.2 |
| 20260507223338 | 21 | 309 | 0.0 | 1.6 | 0.00 | 0.00 | 0.00 | 52 | 1015.4 |
| 20260507222329 | 22 | 53 | 0.0 | 3.2 | 0.00 | 0.00 | 0.00 | 49 | 1015.3 |
| 20260507221353 | 22 | 17 | 0.0 | 4.8 | 0.00 | 0.00 | 0.00 | 49 | 1015.5 |
| 20260507220343 | 22 | 15 | 0.0 | 6.4 | 0.00 | 0.00 | 0.00 | 48 | 1015.4 |
| 20260507215351 | 22 | 38 | 0.0 | 0.0 | 0.00 | 0.00 | 0.00 | 47 | 1015.4 |
| 20260507213224 | 22 | 239 | 0.0 | 0.0 | 0.00 | 0.00 | 0.00 | 46 | 1015.6 |
| 20260507212226 | 23 | 329 | 1.6 | 9.7 | 0.00 | 0.00 | 0.00 | 45 | 1015.7 |
| 20260507211201 | 23 | 29 | 0.0 | 4.8 | 0.00 | 0.00 | 0.00 | 47 | 1015.6 |
| 20260507210209 | 22 | 236 | 0.0 | 3.2 | 0.00 | 0.00 | 0.00 | 48 | 1015.7 |
| 20260507205218 | 23 | 0 | 4.8 | 16.1 | 0.00 | 0.00 | 0.00 | 46 | 1015.8 |
| 20260507204218 | 23 | 26 | 0.0 | 6.4 | 0.00 | 0.00 | 0.00 | 46 | 1015.9 |
| 20260507202045 | 23 | 0 | 1.6 | 12.9 | 0.00 | 0.00 | 0.00 | 49 | 1016.2 |
| 20260507201030 | 22 | 291 | 4.8 | 16.1 | 0.00 | 0.00 | 0.00 | 52 | 1016.3 |
| 20260507200027 | 22 | 308 | 4.8 | 16.1 | 0.00 | 0.00 | 0.00 | 50 | 1016.5 |
| 20260507193850 | 22 | 296 | 0.0 | 14.5 | 0.00 | 0.00 | 0.00 | 49 | 1016.7 |
| 20260507192831 | 22 | 29 | 6.4 | 19.3 | 0.00 | 0.00 | 0.00 | 51 | 1016.9 |
| 20260507191818 | 22 | 22 | 3.2 | 19.3 | 0.00 | 0.00 | 0.00 | 52 | 1016.9 |
| 20260507190812 | 22 | 355 | 6.4 | 14.5 | 0.00 | 0.00 | 0.00 | 52 | 1017.0 |
| 20260507185740 | 21 | 24 | 3.2 | 12.9 | 0.00 | 0.00 | 0.00 | 52 | 1017.1 |
| 20260507184800 | 21 | 351 | 4.8 | 17.7 | 0.00 | 0.00 | 0.00 | 55 | 1017.2 |
| 20260507183805 | 21 | 310 | 3.2 | 17.7 | 0.00 | 0.00 | 0.00 | 56 | 1017.5 |
| 20260507182747 | 21 | 60 | 3.2 | 17.7 | 0.00 | 0.00 | 0.00 | 57 | 1017.6 |
| 20260507181734 | 20 | 290 | 4.8 | 16.1 | 0.00 | 0.00 | 0.00 | 61 | 1017.8 |
| 20260507180710 | 20 | 355 | 6.4 | 16.1 | 0.00 | 0.00 | 0.00 | 60 | 1018.0 |
| 20260507174613 | 20 | 327 | 3.2 | 14.5 | 0.00 | 0.00 | 0.00 | 58 | 1018.5 |
| 20260507173559 | 20 | 317 | 1.6 | 14.5 | 0.00 | 0.00 | 0.00 | 59 | 1018.8 |
| 20260507172535 | 20 | 341 | 3.2 | 12.9 | 0.00 | 0.00 | 0.00 | 56 | 1019.1 |
| 20260507171536 | 19 | 76 | 4.8 | 12.9 | 0.00 | 0.00 | 0.00 | 58 | 1019.3 |
| 20260507165331 | 19 | 305 | 4.8 | 16.1 | 0.00 | 0.00 | 0.00 | 62 | 1019.5 |
| 20260507164328 | 18 | 339 | 4.8 | 11.3 | 0.00 | 0.00 | 0.00 | 60 | 1019.5 |
| 20260507163332 | 18 | 5 | 3.2 | 11.3 | 0.00 | 0.00 | 0.00 | 63 | 1019.7 |
| 20260507162343 | 18 | 313 | 1.6 | 8.0 | 0.00 | 0.00 | 0.00 | 67 | 1019.8 |